User: anonymous   Login
Location: Unspecified
(0.0000°N, 0.0000°E)
Time: 23:50:06
(UTC+00:00)
Language:

LAPAN A3 - Orbit

View from above orbital plane
View from above orbital plane
View from above satellite
View from above satellite

Ground track
Ground track

The orbit data is extracted from the following two-line orbital elements,

1 41603U 16040E   24201.84434192  .00005278  00000-0  21038-3 0  9998
2 41603  97.1411 214.0896 0011462 355.3832   4.7299 15.25555847448208
Epoch (UTC): 19 July 2024 20:15:51
Eccentricity: 0.0011462
inclination: 97.1411°
perigee height: 481 km
apogee height: 497 km
right ascension of ascending node: 214.0896°
argument of perigee: 355.3832°
revolutions per day: 15.25555847
mean anomaly at epoch: 4.7299°
orbit number at epoch: 44820

The dashed part of the orbit path shows where the satellite is in the earth's shadow,  

DLR